Time,TemperatureF,DewpointF,PressureIn,WindDirection,WindDirectionDegrees,WindSpeedMPH,WindSpeedGustMPH,Humidity,HourlyPrecipIn,Conditions,Clouds,dailyrainin,SoftwareType,DateUTC
2013-01-20 00:00:00,39.0,28.0,29.59,North,-999,-999.0,-999.0,66,-99.99,,,-99.99,,2013-01-20 00:00:00,
2013-01-20 00:43:00,39.0,28.0,29.59,North,-999,-999.0,-999.0,66,-99.99,,,-99.99,,2013-01-20 00:43:00,
2013-01-20 00:52:00,39.0,28.0,29.59,North,-999,-999.0,-999.0,66,-99.99,,,-99.99,,2013-01-20 00:52:00,
2013-01-20 01:00:00,38.0,29.0,29.58,North,-999,-999.0,-999.0,68,-99.99,,,-99.99,,2013-01-20 01:00:00,
2013-01-20 01:32:00,38.0,29.0,29.58,North,-999,-999.0,-999.0,68,-99.99,,,-99.99,,2013-01-20 01:32:00,
2013-01-20 01:42:00,38.0,29.0,29.58,North,-999,-999.0,-999.0,68,-99.99,,,-99.99,,2013-01-20 01:42:00,
2013-01-20 01:52:00,38.0,29.0,29.58,North,-999,-999.0,-999.0,68,-99.99,,,-99.99,,2013-01-20 01:52:00,
2013-01-20 02:00:00,39.0,30.0,29.56,North,-999,-999.0,-999.0,69,-99.99,,,-99.99,,2013-01-20 02:00:00,
2013-01-20 02:42:00,39.0,30.0,29.56,North,-999,-999.0,-999.0,69,-99.99,,,-99.99,,2013-01-20 02:42:00,
2013-01-20 02:53:00,39.0,30.0,29.56,North,-999,-999.0,-999.0,69,-99.99,,,-99.99,,2013-01-20 02:53:00,
2013-01-20 03:00:00,38.0,29.0,29.55,North,-999,-999.0,-999.0,69,-99.99,,,-99.99,,2013-01-20 03:00:00,
2013-01-20 03:42:00,38.0,29.0,29.55,North,-999,-999.0,-999.0,69,-99.99,,,-99.99,,2013-01-20 03:42:00,
2013-01-20 03:52:00,38.0,29.0,29.55,North,-999,-999.0,-999.0,69,-99.99,,,-99.99,,2013-01-20 03:52:00,
2013-01-20 04:00:00,39.0,28.0,29.55,North,-999,-999.0,-999.0,64,-99.99,,,-99.99,,2013-01-20 04:00:00,
2013-01-20 04:32:00,39.0,28.0,29.55,North,-999,-999.0,-999.0,64,-99.99,,,-99.99,,2013-01-20 04:32:00,
2013-01-20 04:42:00,39.0,28.0,29.55,North,-999,-999.0,-999.0,64,-99.99,,,-99.99,,2013-01-20 04:42:00,
2013-01-20 04:52:00,39.0,28.0,29.55,North,-999,-999.0,-999.0,64,-99.99,,,-99.99,,2013-01-20 04:52:00,
2013-01-20 05:00:00,38.0,27.0,29.54,North,-999,-999.0,-999.0,63,-99.99,,,-99.99,,2013-01-20 05:00:00,
2013-01-20 05:42:00,38.0,27.0,29.54,North,-999,-999.0,-999.0,63,-99.99,,,-99.99,,2013-01-20 05:42:00,
2013-01-20 05:52:00,38.0,27.0,29.54,North,-999,-999.0,-999.0,63,-99.99,,,-99.99,,2013-01-20 05:52:00,
2013-01-20 06:00:00,39.0,27.0,29.53,North,-999,-999.0,-999.0,62,-99.99,,,-99.99,,2013-01-20 06:00:00,
2013-01-20 06:32:00,39.0,27.0,29.53,North,-999,-999.0,-999.0,62,-99.99,,,-99.99,,2013-01-20 06:32:00,
2013-01-20 06:42:00,39.0,27.0,29.53,North,-999,-999.0,-999.0,62,-99.99,,,-99.99,,2013-01-20 06:42:00,
2013-01-20 06:52:00,39.0,27.0,29.53,North,-999,-999.0,-999.0,62,-99.99,,,-99.99,,2013-01-20 06:52:00,
2013-01-20 07:00:00,38.0,28.0,29.52,North,-999,-999.0,-999.0,65,-99.99,,,-99.99,,2013-01-20 07:00:00,
2013-01-20 07:42:00,38.0,28.0,29.52,North,-999,-999.0,-999.0,65,-99.99,,,-99.99,,2013-01-20 07:42:00,
2013-01-20 07:52:00,38.0,28.0,29.52,North,-999,-999.0,-999.0,65,-99.99,,,-99.99,,2013-01-20 07:52:00,
2013-01-20 08:00:00,38.0,29.0,29.52,North,-999,-999.0,-999.0,68,-99.99,,,-99.99,,2013-01-20 08:00:00,
2013-01-20 08:42:00,38.0,29.0,29.52,North,-999,-999.0,-999.0,68,-99.99,,,-99.99,,2013-01-20 08:42:00,
2013-01-20 08:52:00,38.0,29.0,29.52,North,-999,-999.0,-999.0,68,-99.99,,,-99.99,,2013-01-20 08:52:00,
2013-01-20 09:00:00,39.0,29.0,29.50,North,-999,-999.0,-999.0,68,-99.99,,,-99.99,,2013-01-20 09:00:00,
2013-01-20 09:42:00,39.0,29.0,29.50,North,-999,-999.0,-999.0,68,-99.99,,,-99.99,,2013-01-20 09:42:00,
2013-01-20 09:52:00,39.0,29.0,29.50,North,-999,-999.0,-999.0,68,-99.99,,,-99.99,,2013-01-20 09:52:00,
2013-01-20 10:00:00,38.0,30.0,29.49,North,-999,-999.0,-999.0,70,-99.99,,,-99.99,,2013-01-20 10:00:00,
2013-01-20 10:42:00,38.0,30.0,29.49,North,-999,-999.0,-999.0,70,-99.99,,,-99.99,,2013-01-20 10:42:00,
2013-01-20 10:52:00,38.0,30.0,29.49,North,-999,-999.0,-999.0,70,-99.99,,,-99.99,,2013-01-20 10:52:00,
2013-01-20 11:00:00,38.0,28.0,29.49,North,-999,-999.0,-999.0,64,-99.99,,,-99.99,,2013-01-20 11:00:00,
2013-01-20 11:32:00,38.0,28.0,29.49,North,-999,-999.0,-999.0,64,-99.99,,,-99.99,,2013-01-20 11:32:00,
2013-01-20 11:42:00,38.0,28.0,29.49,North,-999,-999.0,-999.0,64,-99.99,,,-99.99,,2013-01-20 11:42:00,
2013-01-20 11:52:00,38.0,28.0,29.49,North,-999,-999.0,-999.0,64,-99.99,,,-99.99,,2013-01-20 11:52:00,
2013-01-20 12:00:00,37.0,29.0,29.48,North,-999,-999.0,-999.0,71,-99.99,,,-99.99,,2013-01-20 12:00:00,
2013-01-20 12:42:00,37.0,29.0,29.48,North,-999,-999.0,-999.0,71,-99.99,,,-99.99,,2013-01-20 12:42:00,
2013-01-20 12:52:00,37.0,29.0,29.48,North,-999,-999.0,-999.0,71,-99.99,,,-99.99,,2013-01-20 12:52:00,
2013-01-20 13:00:00,38.0,29.0,29.47,North,-999,-999.0,-999.0,70,-99.99,,,-99.99,,2013-01-20 13:00:00,
2013-01-20 13:32:00,38.0,29.0,29.47,North,-999,-999.0,-999.0,70,-99.99,,,-99.99,,2013-01-20 13:32:00,
2013-01-20 13:42:00,38.0,29.0,29.47,North,-999,-999.0,-999.0,70,-99.99,,,-99.99,,2013-01-20 13:42:00,
2013-01-20 13:52:00,38.0,29.0,29.47,North,-999,-999.0,-999.0,70,-99.99,,,-99.99,,2013-01-20 13:52:00,
2013-01-20 14:00:00,37.0,-99.9,29.45,North,-999,-999.0,-999.0,-999,-99.99,,,-99.99,,2013-01-20 14:00:00,
2013-01-20 14:43:00,37.0,-99.9,29.45,North,-999,-999.0,-999.0,-999,-99.99,,,-99.99,,2013-01-20 14:43:00,
2013-01-20 14:53:00,37.0,-99.9,29.45,North,-999,-999.0,-999.0,-999,-99.99,,,-99.99,,2013-01-20 14:53:00,
2013-01-20 15:00:00,38.0,29.0,29.43,North,-999,-999.0,-999.0,67,-99.99,,,-99.99,,2013-01-20 15:00:00,
2013-01-20 15:42:00,38.0,29.0,29.43,North,-999,-999.0,-999.0,67,-99.99,,,-99.99,,2013-01-20 15:42:00,
2013-01-20 15:52:00,38.0,29.0,29.43,North,-999,-999.0,-999.0,67,-99.99,,,-99.99,,2013-01-20 15:52:00,
2013-01-20 16:00:00,38.0,-99.9,29.41,North,-999,-999.0,-999.0,-999,-99.99,,,-99.99,,2013-01-20 16:00:00,
2013-01-20 16:33:00,38.0,-99.9,29.41,North,-999,-999.0,-999.0,-999,-99.99,,,-99.99,,2013-01-20 16:33:00,
2013-01-20 16:43:00,38.0,-99.9,29.41,North,-999,-999.0,-999.0,-999,-99.99,,,-99.99,,2013-01-20 16:43:00,
2013-01-20 16:53:00,38.0,-99.9,29.41,North,-999,-999.0,-999.0,-999,-99.99,,,-99.99,,2013-01-20 16:53:00,
2013-01-20 17:00:00,39.0,-99.9,29.37,North,-999,-999.0,-999.0,-999,-99.99,,,-99.99,,2013-01-20 17:00:00,
2013-01-20 17:43:00,39.0,-99.9,29.37,North,-999,-999.0,-999.0,-999,-99.99,,,-99.99,,2013-01-20 17:43:00,
2013-01-20 17:53:00,39.0,-99.9,29.37,North,-999,-999.0,-999.0,-999,-99.99,,,-99.99,,2013-01-20 17:53:00,
2013-01-20 18:00:00,38.0,-99.9,29.38,North,-999,-999.0,-999.0,-999,-99.99,,,-99.99,,2013-01-20 18:00:00,
2013-01-20 18:33:00,38.0,-99.9,29.38,North,-999,-999.0,-999.0,-999,-99.99,,,-99.99,,2013-01-20 18:33:00,
2013-01-20 18:43:00,38.0,-99.9,29.38,North,-999,-999.0,-999.0,-999,-99.99,,,-99.99,,2013-01-20 18:43:00,
2013-01-20 18:53:00,38.0,-99.9,29.38,North,-999,-999.0,-999.0,-999,-99.99,,,-99.99,,2013-01-20 18:53:00,
2013-01-20 19:00:00,39.0,-99.9,29.36,North,-999,-999.0,-999.0,-999,-99.99,,,-99.99,,2013-01-20 19:00:00,
2013-01-20 19:33:00,39.0,-99.9,29.36,North,-999,-999.0,-999.0,-999,-99.99,,,-99.99,,2013-01-20 19:33:00,
2013-01-20 19:43:00,39.0,-99.9,29.36,North,-999,-999.0,-999.0,-999,-99.99,,,-99.99,,2013-01-20 19:43:00,
2013-01-20 19:53:00,39.0,-99.9,29.36,North,-999,-999.0,-999.0,-999,-99.99,,,-99.99,,2013-01-20 19:53:00,
2013-01-20 20:00:00,38.0,-99.9,29.36,North,-999,-999.0,-999.0,-999,-99.99,,,-99.99,,2013-01-20 20:00:00,
2013-01-20 20:33:00,38.0,-99.9,29.36,North,-999,-999.0,-999.0,-999,-99.99,,,-99.99,,2013-01-20 20:33:00,
2013-01-20 20:43:00,38.0,-99.9,29.36,North,-999,-999.0,-999.0,-999,-99.99,,,-99.99,,2013-01-20 20:43:00,
2013-01-20 20:54:00,38.0,-99.9,29.36,North,-999,-999.0,-999.0,-999,-99.99,,,-99.99,,2013-01-20 20:54:00,
2013-01-20 21:00:00,37.0,-99.9,29.37,North,-999,-999.0,-999.0,-999,-99.99,,,-99.99,,2013-01-20 21:00:00,
2013-01-20 21:43:00,37.0,-99.9,29.37,North,-999,-999.0,-999.0,-999,-99.99,,,-99.99,,2013-01-20 21:43:00,
2013-01-20 21:54:00,37.0,-99.9,29.37,North,-999,-999.0,-999.0,-999,-99.99,,,-99.99,,2013-01-20 21:54:00,
2013-01-20 22:00:00,37.0,-99.9,29.37,North,-999,-999.0,-999.0,-999,-99.99,,,-99.99,,2013-01-20 22:00:00,
2013-01-20 22:43:00,37.0,-99.9,29.37,North,-999,-999.0,-999.0,-999,-99.99,,,-99.99,,2013-01-20 22:43:00,
2013-01-20 22:53:00,37.0,-99.9,29.37,North,-999,-999.0,-999.0,-999,-99.99,,,-99.99,,2013-01-20 22:53:00,
2013-01-20 23:00:00,35.0,30.0,29.38,North,-999,-999.0,-999.0,81,-99.99,,,-99.99,,2013-01-20 23:00:00,
2013-01-20 23:32:00,35.0,30.0,29.38,North,-999,-999.0,-999.0,81,-99.99,,,-99.99,,2013-01-20 23:32:00,
2013-01-20 23:42:00,35.0,30.0,29.38,North,-999,-999.0,-999.0,81,-99.99,,,-99.99,,2013-01-20 23:42:00,
2013-01-20 23:52:00,35.0,30.0,29.38,North,-999,-999.0,-999.0,81,-99.99,,,-99.99,,2013-01-20 23:52:00,